Cloud_Cover
0 0 0 0 0 4 100 9 0 8 100 99 85 100 74 36 71 100 79 86 20 66 90 100 59 37 92 10 5 5 3 3 16 6 11 19 100 100 100 100 94 64 34 74 76 9 5 25 15
0 0 0 0 3 100 96 95 5 0 79 100 100 100 100 100 42 6 36 94 5 33 9 30 82 95 100 100 100 100 100 100 100 100 100 100 100 73 22 12 8 6 5 5 13 11 7 5 8
0 0 0 0 4 100 100 92 0 0 0 10 100 100 100 100 100 87 97 58 97 84 81 11 4 12 2 32 31 86 100 63 95 58 98 97 55 24 10 6 56 88 16 11 5 5 5 3 1
0 0 0 0 38 100 64 2 0 0 0 0 3 98 100 100 100 100 100 100 100 100 86 100 27 17 99 92 1 3 2 12 23 96 92 79 26 26 25 100 79 82 59 98 33 15 33 26 9
0 0 0 5 5 94 0 0 0 0 0 0 0 1 30 91 97 98 100 100 40 71 62 66 100 83 24 8 7 40 85 60 80 60 59 39 58 44 66 84 99 97 100 5 5 5 5 3 1
0 0 0 24 80 2 0 0 0 1 0 0 0 0 0 0 0 5 32 90 100 98 18 7 12 100 65 29 100 63 10 41 66 6 5 5 39 99 79 20 32 5 4 7 10 5 0 3 5
0 0 2 72 59 100 0 0 0 0 0 3 0 7 0 0 3 4 1 0 72 100 100 93 46 95 81 85 62 97 95 56 9 5 5 10 42 34 7 4 1 0 16 37 32 0 0 0 0
0 0 4 18 49 98 0 0 0 0 2 0 1 19 0 0 0 0 0 0 0 27 97 100 100 100 100 100 100 27 52 20 52 7 41 99 8 5 0 0 2 1 0 3 0 0 0 0 0
0 0 0 37 9 100 0 1 0 0 0 0 0 0 0 0 0 0 0 4 4 2 33 27 29 77 84 66 67 36 19 15 66 66 83 5 5 66 96 48 4 4 14 4 0 0 0 0 0
0 0 0 66 94 100 14 1 5 4 0 0 0 0 0 0 0 0 0 0 3 59 62 54 70 32 100 100 73 48 6 5 11 92 94 100 100 64 4 0 0 0 0 0 0 0 0 0 0
0 0 4 7 5 9 46 4 6 4 10 0 0 0 0 0 0 0 0 5 0 1 27 100 100 99 64 81 57 55 21 28 81 100 100 71 1 0 0 0 0 0 0 0 0 0 0 0 0
0 0 0 5 5 0 2 5 4 29 59 65 3 7 5 0 0 0 0 0 0 3 6 27 47 86 64 83 78 20 97 100 96 4 0 0 0 0 0 0 0 0 0 0 0 0 0 0 0
0 0 0 3 5 5 5 3 100 76 40 3 67 97 6 3 0 0 0 0 0 0 6 14 44 92 51 99 49 57 2 0 0 0 0 0 0 0 0 0 0 0 0 0 0 0 0 0 1
0 0 0 5 31 26 5 5 5 63 30 0 0 1 1 1 3 4 4 1 0 1 74 100 100 100 89 100 100 57 5 0 0 0 0 0 0 0 0 0 0 0 0 0 0 0 0 3 3
0 0 0 5 5 5 5 5 5 85 66 0 0 0 0 0 0 2 4 0 0 3 88 85 100 92 100 100 34 6 2 0 0 2 4 5 0 0 0 0 0 0 0 0 0 0 8 2 2
0 0 0 0 4 30 33 5 5 5 4 24 0 0 0 19 4 0 0 19 93 99 100 100 98 93 100 100 89 5 5 2 5 5 3 0 0 0 0 0 0 0 0 0 0 0 0 1 0
0 0 0 0 0 5 38 5 5 5 5 5 5 1 0 0 12 11 15 63 57 100 96 99 100 100 100 100 61 5 5 5 5 4 0 0 0 0 0 0 0 0 0 0 0 0 3 1 2
0 0 0 0 0 5 38 12 5 0 4 5 5 0 0 0 21 46 55 100 96 100 88 100 100 100 100 100 74 6 5 34 2 0 0 0 0 0 0 0 0 0 0 0 0 1 0 1 5
0 0 0 0 0 0 4 48 5 5 0 0 2 0 0 1 33 87 96 100 100 75 66 92 100 100 100 100 92 5 13 5 0 0 0 0 0 0 0 0 0 0 0 0 0 0 0 0 0
0 0 0 0 0 0 1 1 5 5 0 0 1 2 0 8 4 94 100 100 99 68 51 87 83 99 100 97 85 7 72 4 0 0 0 0 0 0 0 0 0 0 0 0 0 0 0 3 0
0 0 0 0 0 0 0 3 5 5 5 2 0 0 0 0 1 8 70 100 88 93 100 100 100 100 99 36 6 35 48 15 3 0 0 0 0 0 0 0 0 0 0 1 0 0 0 2 4
0 0 0 0 0 0 0 0 3 0 0 3 0 0 0 0 26 19 52 100 60 100 98 100 100 99 99 99 100 94 44 82 1 0 0 0 0 0 0 0 0 0 0 0 0 0 1 0 3
0 0 0 0 0 0 1 1 4 95 62 7 5 2 0 0 1 2 59 100 60 80 100 100 95 100 75 100 89 77 99 5 0 0 0 0 0 0 0 0 0 0 0 0 0 0 0 4 0
0 0 0 0 0 0 0 0 2 100 100 100 5 5 1 0 0 17 74 100 92 41 97 100 100 100 82 29 78 12 0 0 0 0 0 1 0 0 0 0 5 0 27 0 9 6 3 0 0
0 0 0 20 56 2 4 12 42 97 81 76 5 66 100 8 0 15 75 81 98 62 38 93 100 100 100 42 0 1 0 0 0 0 4 5 1 5 4 2 9 10 5 8 13 1 18 0 0
97 4 15 98 100 100 100 89 100 88 77 31 5 3 36 0 0 4 82 96 100 66 17 28 67 20 5 4 5 2 0 0 0 0 5 5 5 5 0 13 8 0 0 7 1 14 4 0 2
35 97 52 5 4 14 66 95 98 98 100 94 65 5 4 5 0 2 69 94 100 96 42 2 100 90 17 8 6 5 0 0 0 5 5 5 5 4 6 8 0 0 0 1 10 3 1 5 5
2 27 40 69 27 16 26 86 100 100 88 100 100 100 82 0 0 10 54 100 100 96 72 5 8 5 5 4 3 1 0 0 4 8 5 5 5 5 5 0 1 1 0 0 0 17 3 7 4
89 83 89 3 4 39 100 100 100 84 100 93 92 54 23 100 100 100 100 100 100 100 93 4 0 0 0 4 1 5 5 5 5 36 5 5 5 3 5 5 5 1 0 1 0 1 0 14 58
0 0 0 4 99 87 30 3 36 97 92 11 34 32 1 100 100 100 100 100 100 100 87 4 5 5 5 5 5 5 5 5 5 5 12 28 14 8 54 5 5 0 0 0 13 12 0 10 31